This demonstration page uses our WeatherBlox Daily Observations layout. Learn more.

Left ArrowRight Arrow

53.62937, 11.41316

Hourly Observations for December 25, 2016

Temp ( °F °C ) Dew Point ( °F °C ) Humidity (%) Winds ( mph kmh ) Pressure ( in mb ) Visibility ( mi km ) Precip ( " mm )
12:20 am 00:20 Clear 39 4 36 2 87 87 W 13 20 29.91 1013 30 48 N/A
1:20 am 01:20 Clear 39 4 36 2 87 87 W 15 24 29.91 1013 30 48 N/A
2:20 am 02:20 Clear 39 4 36 2 87 87 W 14 22 29.94 1014 30 48 N/A
3:20 am 03:20 Clear 41 5 37 3 87 87 W 13 20 29.94 1014 30 48 N/A
4:20 am 04:20 Clear 39 4 37 3 93 93 WSW 10 17 29.94 1014 30 48 N/A
5:20 am 05:20 Clear 41 5 37 3 87 87 WSW 8 13 29.94 1014 30 48 N/A
6:20 am 06:20 Clear 41 5 37 3 87 87 WSW 9 15 29.94 1014 30 48 N/A
7:20 am 07:20 Mostly Cloudy 41 5 39 4 93 93 SW 8 13 29.94 1014 30 48 N/A
7:47 am 07:47 Mostly Cloudy with Light Rain 41 5 39 4 93 93 SW 8 13 29.91 1013 30 48 N/A
8:20 am 08:20 Mostly Cloudy with Rain 43 6 41 5 93 93 WSW 10 17 29.91 1013 4 6 N/A
9:20 am 09:20 Mostly Cloudy with Rain 45 7 43 6 93 93 SW 10 17 29.91 1013 4 7 N/A
9:50 am 09:50 Mostly Cloudy with Rain 45 7 43 6 93 93 WSW 10 17 29.91 1013 4 7 N/A
10:20 am 10:20 Mostly Cloudy with Light Rain 45 7 45 7 100 100 WSW 12 19 29.91 1013 5 8 N/A
11:05 am 11:05 Mostly Cloudy with Drizzle 46 8 45 7 93 93 WSW 13 20 29.91 1013 3 5 N/A
11:20 am 11:20 Mostly Cloudy with Drizzle 46 8 45 7 93 93 WSW 12 19 29.91 1013 2 4 N/A
11:26 am 11:26 Mostly Cloudy with Drizzle 46 8 45 7 93 93 WSW 13 20 29.91 1013 2 4 N/A
11:37 am 11:37 Mostly Cloudy with Drizzle 46 8 45 7 93 93 WSW 10 17 29.91 1013 2 3 N/A
11:48 am 11:48 Mostly Cloudy with Drizzle 46 8 45 7 93 93 WSW 10 17 29.91 1013 2 4 N/A
12:20 pm 12:20 Mostly Cloudy with Drizzle 46 8 45 7 93 93 WSW 13 20 29.88 1012 2 3 N/A
12:34 pm 12:34 Mostly Cloudy with Drizzle 46 8 45 7 93 93 WSW 14 22 29.88 1012 2 3 N/A
12:49 pm 12:49 Mostly Cloudy with Drizzle 46 8 45 7 93 93 WSW 12 19 29.88 1012 2 4 N/A
1:00 pm 13:00 Mostly Cloudy with Drizzle 46 8 45 7 93 93 WSW 12 19 29.88 1012 2 3 N/A
1:20 pm 13:20 Mostly Cloudy with Drizzle 46 8 45 7 93 93 WSW 13 20 29.88 1012 2 3 N/A
1:43 pm 13:43 Mostly Cloudy with Drizzle 46 8 46 8 100 100 WSW 13 20 29.88 1012 2 3 N/A
1:48 pm 13:48 Mostly Cloudy with Drizzle 46 8 46 8 100 100 WSW 13 20 29.88 1012 1 2 N/A
2:20 pm 14:20 Mostly Cloudy with Drizzle 46 8 46 8 100 100 WSW 13 20 29.88 1012 1 2 N/A
2:25 pm 14:25 Mostly Cloudy with Drizzle 46 8 46 8 100 100 WSW 13 20 29.88 1012 3 5 N/A
2:48 pm 14:48 Mostly Cloudy with Drizzle 48 9 46 8 94 94 WSW 13 20 29.88 1012 5 8 N/A
3:20 pm 15:20 Mostly Cloudy with Drizzle 48 9 46 8 94 94 W 16 26 29.88 1012 3 5 N/A
4:20 pm 16:20 Mostly Cloudy with Drizzle 50 10 46 8 88 88 W 18 30 29.91 1013 5 8 N/A
4:38 pm 16:38 Mostly Cloudy with Drizzle 50 10 48 9 94 94 W 20 31 29.91 1013 6 9 N/A
5:20 pm 17:20 Mostly Cloudy 50 10 46 8 88 88 W 18 30 29.91 1013 30 48 N/A
6:20 pm 18:20 Mostly Cloudy with Light Rain 50 10 48 9 94 94 W 15 24 29.94 1014 30 48 N/A
6:47 pm 18:47 Mostly Cloudy with Drizzle 50 10 48 9 94 94 WSW 10 17 29.94 1014 2 4 N/A
7:04 pm 19:04 Mostly Cloudy with Drizzle 50 10 48 9 94 94 WSW 12 19 29.94 1014 5 8 N/A
7:20 pm 19:20 Mostly Cloudy with Drizzle 50 10 48 9 94 94 WSW 12 19 29.94 1014 4 6 N/A
7:38 pm 19:38 Mostly Cloudy with Drizzle 50 10 48 9 94 94 WSW 12 19 29.94 1014 2 4 N/A
7:50 pm 19:50 Mostly Cloudy with Drizzle 50 10 48 9 94 94 WSW 13 20 29.94 1014 4 6 N/A
8:20 pm 20:20 Mostly Cloudy with Drizzle 50 10 48 9 94 94 WSW 13 20 29.94 1014 4 6 N/A
9:20 pm 21:20 Mostly Cloudy 50 10 48 9 94 94 WSW 13 20 29.94 1014 1 2 N/A
10:20 pm 22:20 Mostly Cloudy 50 10 48 9 94 94 WSW 12 19 29.94 1014 2 3 N/A
11:20 pm 23:20 Clear 50 10 48 9 94 94 W 14 22 29.94 1014 30 48 N/A

Powered by AerisWeather